Flag for Switzerland Weather past 2 weeks in Delémont, Jura, Switzerland

Now
62 °F

Refreshingly cool.


Feels Like: 62 °F
Forecast: 42 / 69 °F
Wind: 16 mph from East

Location: Grenchen

Current Time: May 23, 2015 at 2:06:30 PM

Latest Report: May 23, 2015 at 1:00 PM


Visibility: N/A

Pressure: 30.05 "Hg

Humidity: 52%

Dew point: 44 °F

Location of DelémontLocation

Historic Weather in Delémont — Graph

°F

Delémont temperature yesterday

Maximum temperature yesterday: 62 °F (at 1:00 PM)
Minimum temperature yesterday: 38 °F (at 5:00 AM)
Average temperature yesterday: 50 °F

Past Weeks' High & Low Weather Summary

 TemperatureHumidityPressure
High83 °F (May 13, 5:00 PM)100% (May 9, 3:00 AM)30.41 "Hg (May 9, 3:00 AM)
Low38 °F (May 22, 5:00 AM)30% (May 13, 4:00 PM)29.73 "Hg (May 18, 8:00 PM)
Average57 °F72%30.11 "Hg
* Reported May 8 12:00 Noon — May 23 12:00 Noon, Delémont, Weather by CustomWeather, © 2015

Note: Actual official high and low records may vary slightly from our data, if they occured in-between our weather recording intervals... More about our weather records

Advertising

Delémont weather history for previous 24 hours

 ConditionsComfort  
Time TempWeatherWind HumidityBarometerVisibility
12:00 PM
Sat, May 23
60 °FRefreshingly cool.14 mph53%30.06 "HgN/A
11:00 AM59 °FRefreshingly cool.16 mph58%30.07 "HgN/A
10:00 AM56 °FCool.10 mph65%30.08 "HgN/A
9:00 AM52 °FCool.7 mph80%30.10 "HgN/A
8:00 AM50 °FCool.3 mph88%30.10 "HgN/A
7:00 AM44 °FQuite cool.1 mph95%30.12 "HgN/A
6:00 AM41 °FQuite cool.No wind99%30.13 "HgN/A
4:00 AM42 °FQuite cool.1 mph97%30.14 "HgN/A
3:00 AM43 °FQuite cool.No wind96%30.15 "HgN/A
2:00 AM46 °FCool.No wind92%30.16 "HgN/A
1:00 AM46 °FCool.2 mph93%30.18 "HgN/A
12:00 AM46 °FCool.2 mph96%30.19 "HgN/A
11:00 PM
Fri, May 22
47 °FCool.3 mph93%30.19 "HgN/A
10:00 PM51 °FCool.1 mph88%30.18 "HgN/A
9:00 PM54 °FCool.2 mph78%30.17 "HgN/A
8:00 PM56 °FCool.3 mph77%30.16 "HgN/A
7:00 PM58 °FCool.5 mph65%30.16 "HgN/A
6:00 PM59 °FCool.2 mph63%30.16 "HgN/A
5:00 PM56 °FCool.7 mph66%30.18 "HgN/A
4:00 PM57 °FCool.6 mph60%30.19 "HgN/A
3:00 PM58 °FRefreshingly cool.9 mph55%30.20 "HgN/A
2:00 PM58 °FRefreshingly cool.13 mph51%30.22 "HgN/A
Weather by CustomWeather, © 2015

See weather overviewHow to use our weather pages